STARLINK-31485, 59308

Orbit data source: Space-Track

STARLINK-31485, 59308 is a payload satellite owned by SpaceX/Seattle (US) in LEO that was launched on Sun, 24 Mar 2024 UTC via an FALCON 9 launch vehicle from the Air Force Eastern Test Range (AFETR). Payload-class satellites include a variety of spacecraft equipped with specific instruments for various scientific and technological missions. These include communications satellites like Starlink; space stations such as the ISS; scientific satellites like the Hubble; Earth observation satellites from companies like Planet Labs, Umbra, and HawkEye 360; GPS; miniature CubeSats for education and research; and military/defense satellites.

Loading next visibility...
Identifier
59308, 2024-056N
Orbit
LEO
Country
Flag of USUS
Related business
Manufacturer
SpaceX/Seattle
Mission
Operational Commercial Communications
Bus & Motor
STARLINK V2M, Unknown motor
Mass
730 kg wet, ~700 kg dry
Launch date (UTC)
2024-03-24 (2 years ago)
Launch vehicle
FALCON 9
Launch site
Air Force Eastern Test Range (AFETR)
Object type
Payload
Rocket body
Debris
Shape & HBR
Box + 2 Pan, 17.7 m
Radar Cross Section
33.884 m², Large (>1 m²)

Expand to show TLE details & history
Last TLE update: 3 days ago

TLE from 3 days ago
0 STARLINK-31485
1 59308U 24056N   26170.90424338  .00000982  00000-0  45200-4 0  9995
2 59308  43.0026  13.7146 0001559 270.9657  89.1016 15.27583381126782
Epoch: 2026-06-19T21:42Z
TLE epoch observation values (Epoch: 2026-06-19T21:42:06.628Z)
Latitude
-0°
Longitude
140.06045°
Altitude
482.798 km
Speed
7.626 km/s
True Right ascension
00h 54m 51s
True Declination
0° 00' 00"
Sunlit
Object was in daylight at epoch
Visualization orbit readout
Latitude
Unknown
Longitude
Unknown
Altitude
Unknown
Speed
Unknown
Apparent Right ascension
Unknown
Apparent Declination
Unknown
Sunlit
N/A
Visualization observer readout
Local Sidereal Time
21:28:45
Azimuth
Unknown
Elevation
Unknown
Doppler factor
Unknown
Orbital elements
Apogee altitude
486.054 km
Perigee altitude
483.914 km
Semi-major axis
6,863.121 km
Eccentricity
0.00016
Inclination
43.0026°
RAAN
13.7146°
Arg. of periapsis
270.9657°
True anomaly
89.11946°
Mean anomaly
89.1016°
Eccentric anomaly
89.11053°
Mean motion
3.81734 °/min
Orbital period
94.31 mins
BSTAR
0.0000452
Loading maneuver chart data...
Computing Atmospheric mass density...
Loading historical data...
Loading historical data...
Loading historical data...
Loading historical data...
Loading historical data...
Loading historical data...
Loading historical data...

Documentation

Showing up to 5 results
|